Wind_Speed
25 26 26 21 23 21 17 15 12 10 8 7 8 8 6 6 5 3 1 3 4 2 1 4 4 2 2 13 16 6 6 7 10 14 15 14 15 16 19 19 22 27 26 27 27
28 28 28 25 24 24 22 19 17 13 11 9 9 10 11 9 8 7 3 3 2 3 1 4 4 5 7 1 14 7 1 5 5 10 14 13 12 13 16 18 20 24 24 27 25
31 33 32 30 28 28 26 24 21 18 14 12 12 12 13 13 11 8 6 6 8 2 2 5 6 8 9 9 1 8 0 6 3 7 10 9 9 11 14 19 18 20 23 27 25
34 36 36 35 34 32 30 29 27 25 20 16 16 15 15 15 12 12 10 9 9 9 4 5 9 10 11 10 11 5 3 6 3 5 4 8 8 10 12 18 19 18 22 23 25
38 38 39 39 38 36 34 33 31 30 27 22 18 19 18 16 16 16 16 13 12 11 12 7 11 13 13 13 13 6 7 1 1 2 3 3 6 9 11 17 18 17 19 23 23
41 40 41 42 43 43 41 38 36 33 31 29 25 21 21 18 19 19 19 17 16 14 15 13 9 11 15 14 13 12 7 7 5 6 1 2 1 6 7 13 16 15 16 21 25
44 43 42 41 44 46 46 44 41 37 35 34 31 25 22 20 22 24 22 20 20 17 18 19 11 11 12 16 14 13 14 13 4 6 5 3 6 3 4 7 13 12 14 17 22
45 45 44 42 41 42 44 45 43 42 39 36 34 33 27 19 23 28 25 21 21 22 24 21 16 9 12 15 16 17 19 18 16 14 10 12 12 8 7 2 9 12 19 16 19
47 46 45 44 43 42 43 43 42 42 41 37 36 34 32 23 22 27 28 27 25 22 23 22 17 10 11 13 18 19 21 20 21 20 18 10 6 11 9 6 3 6 13 19 20
49 48 47 46 44 42 42 42 41 40 39 38 35 36 33 27 23 26 28 29 28 26 23 22 18 14 14 17 17 24 27 25 23 24 22 14 7 8 10 10 6 1 8 16 23
54 52 50 47 45 44 43 42 42 43 40 39 38 37 34 32 27 24 27 31 29 29 26 22 19 16 18 20 21 22 25 23 17 18 15 15 13 17 15 14 11 5 2 13 22
52 55 54 51 47 46 44 43 42 42 41 42 41 38 37 35 30 27 27 30 30 27 28 25 18 21 22 22 22 24 24 19 12 17 20 20 17 18 10 15 15 12 2 7 18
44 48 53 55 52 47 45 44 43 42 42 38 39 39 37 37 31 24 27 30 31 29 27 27 19 24 24 26 23 23 20 17 18 19 21 23 14 19 15 9 13 12 7 7 15
41 42 44 50 53 52 48 44 42 41 44 39 38 35 33 32 34 24 27 29 32 29 28 29 22 24 26 23 23 23 21 18 21 23 22 22 18 14 15 16 12 13 13 15 18
38 39 40 41 44 48 48 47 42 41 43 39 38 35 34 33 27 25 27 29 29 29 29 25 20 25 24 21 26 21 23 23 24 26 29 26 26 19 21 21 18 18 20 20 20
36 37 38 37 38 39 44 47 42 40 42 36 33 33 30 30 29 27 28 30 29 31 33 27 24 23 18 23 24 24 24 25 29 29 28 25 28 21 24 24 23 24 26 23 16
33 35 35 36 38 34 33 39 41 46 39 37 33 30 25 25 26 30 30 32 32 31 32 27 23 22 19 20 20 23 26 28 30 30 27 25 25 20 26 28 26 28 30 16 11
30 32 32 34 35 35 33 33 39 44 39 38 30 29 25 22 25 29 31 34 33 31 29 29 26 21 20 18 20 23 26 26 26 30 28 30 28 24 26 33 33 30 17 15 12
31 30 32 35 33 34 33 35 33 31 35 35 30 27 25 27 23 27 30 33 34 31 30 29 27 22 20 22 25 27 26 25 27 28 29 27 27 29 27 26 26 18 14 15 16
23 27 28 32 34 34 34 34 31 29 31 32 31 31 28 27 26 27 27 31 35 36 33 32 28 28 28 25 27 31 30 28 29 30 29 28 26 23 21 15 13 11 15 18 22
25 23 27 30 32 33 33 33 31 29 30 31 30 32 31 30 32 30 27 28 30 30 30 32 33 27 28 29 25 30 35 35 34 32 27 25 22 15 11 8 9 13 19 22 24
25 27 26 30 29 32 29 28 27 30 32 34 33 32 36 36 36 33 31 30 29 28 26 28 29 30 27 27 29 30 33 37 31 26 23 22 22 17 17 13 14 15 17 18 17
21 25 28 27 29 31 30 30 30 31 34 34 34 33 37 39 38 39 36 34 30 26 25 26 30 28 29 28 29 29 30 31 28 27 21 22 17 15 15 18 18 15 17 20 21
10 17 23 25 26 28 30 30 29 31 33 33 33 33 37 40 39 38 38 36 31 27 26 26 29 29 27 28 28 28 26 25 24 25 24 26 21 17 18 18 16 15 16 18 15
8 10 26 26 26 27 25 24 26 31 32 33 31 32 36 40 41 39 36 36 31 25 28 25 27 26 22 24 29 28 29 26 24 22 22 22 27 25 20 18 17 17 13 15 15
13 12 14 22 28 24 23 21 22 25 26 29 28 33 37 41 42 39 40 36 30 27 27 27 28 26 26 23 21 27 27 28 24 26 22 18 17 21 20 21 22 17 20 13 18
15 14 14 8 14 22 26 22 20 19 21 24 26 30 35 40 44 41 40 40 36 31 28 30 27 24 23 22 23 23 23 22 21 20 25 22 19 19 18 18 19 17 19 18 16
Wind_Direction
222 212 223 228 229 241 242 246 241 234 233 237 256 261 251 240 241 234 282 73 98 74 198 147 134 296 319 115 107 105 71 60 87 82 80 72 64 59 51 49 44 40 32 27 24
232 226 228 231 233 241 247 247 250 236 229 233 239 255 257 246 235 244 262 284 142 109 276 198 175 256 289 285 124 137 354 62 80 113 103 84 64 47 52 46 41 39 29 26 21
237 232 231 232 235 243 249 252 253 248 232 230 235 238 248 253 241 241 247 267 282 155 177 222 203 235 261 283 202 124 79 50 95 110 92 82 75 66 56 47 37 34 30 25 23
236 237 232 233 234 238 245 252 257 258 253 236 236 238 239 245 244 238 242 250 268 277 205 211 235 232 257 266 277 109 147 56 97 139 87 95 71 58 46 43 32 23 32 27 22
239 235 236 234 235 236 239 246 252 257 257 250 235 235 239 241 241 236 236 239 247 259 260 201 222 239 240 254 268 262 160 317 254 233 25 64 77 45 41 36 26 14 18 20 21
243 240 236 236 236 236 239 241 246 253 258 260 250 234 240 242 241 243 238 235 240 248 260 256 229 233 234 243 254 258 263 222 236 267 175 120 146 34 18 40 24 13 22 35 28
244 244 242 239 237 238 239 242 245 249 254 260 261 245 237 242 239 241 245 241 240 242 249 255 232 229 231 235 234 245 256 264 251 256 237 272 278 304 332 32 33 11 16 24 15
248 245 244 242 241 241 241 243 244 247 250 256 261 264 250 240 248 247 245 248 248 242 247 255 260 241 229 242 230 234 247 253 260 246 275 301 270 250 266 51 52 5 342 353 357
250 249 247 245 243 241 242 243 243 245 248 251 256 262 265 250 248 252 248 241 242 247 254 256 260 260 251 235 235 224 240 248 250 263 274 299 276 260 247 175 128 7 346 333 329
247 248 248 247 245 244 244 244 244 244 243 247 247 252 260 264 251 250 253 248 245 243 246 252 252 250 247 251 236 229 232 242 246 253 267 278 294 274 242 191 197 344 326 327 313
249 248 247 246 246 245 244 244 244 243 242 243 246 251 252 257 253 247 246 247 243 245 246 247 250 242 240 244 247 244 238 249 255 256 260 278 308 319 242 204 212 207 333 330 299
252 249 248 248 246 246 245 247 246 246 241 240 241 243 250 257 256 248 245 245 241 241 242 244 243 245 240 243 243 251 246 260 248 241 265 281 292 298 244 209 215 221 17 309 295
254 252 249 247 248 247 246 245 247 248 248 242 245 246 249 256 256 255 244 242 240 235 238 242 239 242 240 244 250 255 260 252 236 239 251 273 286 281 269 230 207 233 270 283 307
252 250 251 249 246 247 247 246 245 246 248 246 245 245 244 247 250 247 243 238 238 236 232 236 232 241 245 245 251 253 258 247 233 233 241 261 272 265 276 278 275 247 264 271 280
247 248 247 249 246 244 244 245 245 244 247 248 244 247 245 244 245 236 238 235 233 234 237 236 231 238 244 249 249 251 250 251 250 238 243 250 262 263 263 263 273 266 282 277 273
246 243 243 244 244 243 241 241 242 240 245 245 248 244 245 240 236 230 224 231 227 225 231 234 233 241 242 244 247 249 248 248 247 247 254 242 249 262 263 263 258 264 278 289 285
246 242 240 240 240 240 239 237 237 240 240 242 243 243 243 238 234 230 221 227 232 227 230 230 234 243 241 243 244 246 246 244 242 244 254 262 257 262 254 259 252 270 273 287 280
246 241 235 237 236 235 235 237 240 238 238 240 240 238 236 235 227 229 221 221 227 228 225 227 226 237 244 245 247 242 244 247 242 243 252 264 275 273 250 257 268 273 279 281 261
242 240 238 236 234 233 234 238 240 239 234 236 231 231 229 230 228 224 225 221 224 231 231 229 227 233 239 235 235 234 240 247 245 252 256 268 269 269 275 264 258 260 271 271 283
245 237 235 235 232 230 234 238 238 235 236 229 224 222 223 221 220 221 226 222 223 226 225 225 223 227 234 234 234 230 234 240 246 253 262 268 270 277 274 291 291 271 264 275 280
245 239 235 231 230 229 232 234 236 232 230 225 219 215 216 216 212 216 223 228 228 231 228 230 227 223 236 237 237 234 234 239 246 251 257 266 275 267 253 217 242 258 263 278 287
247 235 234 230 231 230 230 232 234 230 232 228 220 212 212 212 213 214 221 228 232 235 235 230 225 218 227 233 230 234 231 239 244 251 250 257 267 268 262 247 248 263 283 287 293
244 232 227 228 230 223 227 228 229 227 232 228 223 215 213 213 217 220 220 225 228 230 234 232 225 225 220 225 230 234 237 240 245 249 247 253 258 267 274 260 261 264 274 282 301
246 234 228 225 225 226 222 227 230 229 232 232 226 218 216 214 214 221 223 225 231 229 227 230 227 226 225 226 232 232 235 238 241 250 250 248 252 263 279 281 278 280 271 285 301
237 248 225 222 223 223 220 222 226 227 230 232 226 222 217 219 218 218 222 227 233 230 228 231 226 225 230 234 228 228 231 234 233 244 253 257 255 261 266 280 289 299 293 285 292
239 239 212 225 228 232 219 217 220 225 227 231 226 221 220 222 220 218 222 225 228 230 233 234 230 228 225 233 229 230 233 235 239 241 245 252 256 262 264 271 284 282 296 292 286
232 226 235 264 239 220 213 213 216 218 219 221 220 219 220 225 228 222 219 221 222 220 224 236 234 231 228 229 238 241 239 246 244 243 244 256 255 254 260 264 268 282 290 277 288
Height
5917 5919 5921 5922 5924 5924 5925 5925 5926 5928 5927 5928 5927 5927 5928 5928 5929 5930 5930 5934 5934 5934 5934 5934 5935 5935 5936 5939 5939 5939 5938 5937 5935 5935 5934 5933 5931 5928 5928 5927 5926 5924 5922 5919 5917
5912 5914 5916 5918 5920 5921 5922 5922 5924 5925 5926 5927 5927 5927 5927 5927 5928 5929 5929 5930 5932 5933 5934 5934 5934 5934 5934 5936 5941 5941 5940 5938 5937 5934 5933 5933 5933 5931 5929 5928 5927 5925 5924 5921 5918
5907 5909 5911 5913 5915 5916 5918 5919 5920 5922 5924 5925 5925 5925 5926 5925 5927 5928 5928 5928 5928 5932 5932 5933 5935 5935 5934 5934 5938 5940 5940 5940 5939 5937 5936 5934 5934 5932 5930 5930 5928 5927 5925 5922 5920
5901 5904 5906 5908 5910 5912 5913 5915 5916 5918 5919 5922 5924 5923 5924 5924 5927 5926 5927 5928 5928 5929 5932 5933 5933 5933 5934 5935 5935 5941 5941 5940 5941 5939 5938 5936 5935 5934 5933 5931 5930 5928 5926 5924 5922
5894 5896 5899 5902 5904 5906 5908 5910 5912 5913 5915 5916 5920 5920 5922 5922 5923 5923 5924 5925 5926 5926 5927 5931 5932 5932 5933 5934 5934 5937 5941 5941 5940 5940 5940 5938 5935 5935 5933 5932 5930 5928 5926 5924 5922
5886 5889 5891 5894 5897 5899 5901 5904 5907 5908 5910 5911 5913 5916 5917 5920 5920 5919 5920 5922 5924 5924 5925 5926 5930 5931 5931 5932 5933 5933 5937 5940 5940 5940 5940 5939 5936 5936 5935 5933 5931 5929 5927 5925 5923
5877 5880 5883 5886 5889 5892 5894 5897 5900 5902 5904 5906 5908 5911 5913 5916 5916 5915 5916 5919 5921 5922 5922 5922 5927 5928 5930 5930 5931 5932 5933 5934 5938 5938 5939 5940 5939 5937 5936 5934 5932 5930 5929 5926 5923
5868 5871 5873 5877 5880 5883 5885 5889 5893 5896 5898 5901 5903 5904 5908 5912 5911 5911 5914 5916 5917 5918 5918 5919 5921 5926 5926 5927 5928 5930 5931 5933 5934 5936 5937 5939 5938 5936 5935 5935 5933 5931 5929 5927 5924
5858 5861 5864 5867 5870 5873 5876 5880 5884 5888 5891 5894 5897 5898 5901 5906 5909 5907 5908 5910 5911 5914 5915 5917 5919 5921 5923 5924 5925 5926 5928 5929 5931 5932 5933 5935 5936 5934 5934 5933 5932 5930 5929 5926 5923
5847 5850 5854 5857 5861 5864 5866 5871 5875 5879 5883 5886 5890 5893 5896 5899 5903 5903 5903 5904 5907 5908 5910 5913 5916 5917 5918 5918 5922 5922 5923 5926 5928 5928 5929 5931 5932 5930 5929 5930 5930 5928 5928 5925 5920
5837 5839 5843 5847 5851 5854 5858 5863 5868 5871 5874 5879 5884 5885 5889 5891 5895 5898 5898 5898 5901 5903 5905 5907 5911 5912 5912 5913 5915 5917 5920 5922 5925 5925 5926 5927 5927 5927 5924 5927 5927 5926 5926 5923 5918
5825 5828 5832 5835 5840 5844 5848 5853 5857 5861 5866 5869 5874 5879 5881 5883 5887 5891 5894 5894 5896 5898 5899 5902 5906 5906 5907 5908 5910 5911 5913 5917 5920 5921 5921 5922 5924 5923 5923 5923 5924 5924 5923 5922 5918
5815 5817 5820 5824 5828 5833 5839 5844 5847 5851 5855 5862 5865 5870 5875 5875 5879 5885 5887 5888 5889 5892 5894 5895 5901 5900 5902 5903 5906 5907 5910 5913 5916 5918 5918 5919 5921 5920 5920 5921 5923 5922 5921 5921 5918
5804 5807 5810 5813 5818 5822 5829 5835 5838 5842 5844 5854 5857 5862 5865 5868 5869 5877 5877 5882 5884 5887 5889 5890 5893 5895 5896 5899 5901 5903 5906 5909 5910 5913 5915 5916 5917 5919 5918 5918 5919 5919 5918 5918 5915
5794 5797 5800 5804 5806 5811 5819 5823 5828 5833 5835 5846 5849 5853 5856 5860 5867 5868 5870 5873 5877 5881 5883 5888 5888 5888 5891 5896 5895 5900 5900 5902 5904 5907 5910 5911 5913 5915 5916 5915 5915 5915 5914 5913 5913
5783 5787 5791 5795 5798 5803 5807 5812 5818 5824 5829 5835 5840 5844 5848 5852 5856 5860 5863 5866 5871 5873 5876 5880 5882 5884 5889 5889 5891 5894 5895 5897 5900 5903 5905 5906 5909 5910 5911 5912 5912 5911 5911 5910 5909
5774 5779 5782 5786 5790 5794 5797 5803 5808 5813 5826 5828 5831 5837 5841 5845 5848 5852 5856 5859 5863 5867 5871 5876 5878 5880 5883 5884 5887 5889 5891 5893 5896 5898 5900 5902 5903 5906 5906 5906 5907 5908 5907 5907 5907
5766 5771 5774 5778 5782 5786 5790 5795 5799 5809 5815 5820 5824 5829 5834 5838 5842 5845 5849 5852 5856 5861 5867 5869 5873 5875 5879 5881 5883 5885 5887 5890 5891 5893 5897 5896 5897 5899 5900 5900 5901 5903 5903 5903 5903
5759 5763 5767 5771 5776 5778 5783 5787 5794 5800 5806 5811 5817 5822 5827 5831 5836 5838 5843 5848 5852 5856 5861 5864 5869 5872 5873 5875 5878 5881 5883 5886 5886 5889 5891 5893 5893 5893 5894 5895 5897 5899 5900 5900 5899
5752 5756 5759 5763 5768 5772 5776 5781 5786 5793 5797 5803 5809 5814 5820 5825 5830 5833 5836 5841 5844 5849 5853 5859 5863 5865 5866 5869 5872 5875 5880 5881 5882 5884 5886 5887 5888 5889 5890 5890 5891 5894 5896 5895 5894
5747 5749 5753 5757 5761 5765 5769 5774 5780 5786 5790 5794 5801 5808 5814 5820 5824 5828 5831 5835 5839 5844 5848 5852 5856 5861 5862 5864 5868 5870 5873 5876 5878 5880 5882 5883 5885 5885 5887 5888 5889 5891 5892 5889 5888
5740 5743 5747 5751 5756 5760 5764 5768 5774 5779 5782 5787 5793 5800 5806 5813 5819 5823 5827 5830 5834 5838 5842 5845 5849 5854 5857 5858 5861 5863 5865 5868 5871 5875 5876 5879 5882 5882 5883 5884 5886 5887 5887 5884 5883
5733 5736 5741 5745 5748 5752 5757 5761 5765 5771 5775 5781 5787 5793 5799 5806 5813 5817 5822 5825 5828 5833 5836 5839 5842 5847 5851 5853 5855 5858 5860 5863 5867 5869 5872 5875 5878 5878 5877 5878 5880 5881 5881 5880 5880
5731 5732 5736 5739 5742 5746 5750 5755 5760 5766 5770 5774 5781 5787 5792 5798 5805 5810 5816 5819 5823 5827 5831 5834 5837 5841 5846 5849 5851 5854 5857 5859 5862 5864 5867 5869 5872 5872 5873 5874 5875 5876 5877 5875 5875
5728 5729 5731 5734 5737 5740 5746 5751 5755 5759 5763 5768 5774 5781 5787 5791 5797 5804 5810 5814 5817 5821 5825 5829 5833 5837 5841 5843 5846 5849 5852 5854 5857 5859 5862 5864 5866 5868 5869 5869 5871 5872 5872 5871 5870
5725 5727 5727 5728 5732 5736 5741 5746 5749 5752 5758 5762 5768 5773 5779 5784 5789 5796 5803 5808 5812 5816 5820 5823 5827 5832 5835 5837 5840 5844 5847 5849 5851 5854 5856 5858 5860 5862 5863 5864 5865 5866 5867 5866 5866
5722 5724 5725 5726 5727 5731 5737 5742 5744 5749 5753 5756 5761 5766 5772 5776 5780 5788 5794 5800 5806 5810 5814 5818 5822 5826 5829 5832 5835 5838 5840 5842 5845 5848 5850 5852 5855 5856 5857 5858 5859 5860 5861 5861 5860